Time,TemperatureF,DewpointF,PressureIn,WindDirection,WindDirectionDegrees,WindSpeedMPH,WindSpeedGustMPH,Humidity,HourlyPrecipIn,Conditions,Clouds,dailyrainin,SoftwareType,DateUTC
2013-08-05 00:00:00,80.9,72.2,30.00,SSW,194,0.0,4.0,75,0.00,,,0.00,VWS V14.01,2013-08-04 22:00:00,
2013-08-05 00:04:00,80.9,72.2,30.00,SSW,194,2.0,4.0,75,0.00,,,0.00,VWS V14.01,2013-08-04 22:04:00,
2013-08-05 00:09:00,80.8,72.1,30.00,South,190,3.0,5.0,75,0.00,,,0.00,VWS V14.01,2013-08-04 22:09:00,
2013-08-05 00:10:00,80.7,72.4,30.00,South,190,0.0,5.0,76,0.00,,,0.00,VWS V14.01,2013-08-04 22:10:00,
2013-08-05 00:14:00,80.7,72.4,30.00,South,190,0.0,5.0,76,0.00,,,0.00,VWS V14.01,2013-08-04 22:14:00,
2013-08-05 00:19:00,80.6,72.3,30.00,South,190,0.0,1.0,76,0.00,,,0.00,VWS V14.01,2013-08-04 22:19:00,
2013-08-05 00:20:00,80.6,72.3,30.00,South,190,0.0,3.0,76,0.00,,,0.00,VWS V14.01,2013-08-04 22:20:00,
2013-08-05 00:24:00,80.6,72.3,30.00,South,190,0.0,3.0,76,0.00,,,0.00,VWS V14.01,2013-08-04 22:24:00,
2013-08-05 00:29:00,80.6,72.3,30.00,South,190,0.0,3.0,76,0.00,,,0.00,VWS V14.01,2013-08-04 22:29:00,
2013-08-05 00:30:00,80.6,71.9,30.00,South,190,0.0,3.0,75,0.00,,,0.00,VWS V14.01,2013-08-04 22:30:00,
2013-08-05 00:34:00,80.6,71.9,30.00,South,190,1.0,3.0,75,0.00,,,0.00,VWS V14.01,2013-08-04 22:34:00,
2013-08-05 00:39:00,80.6,71.9,30.00,South,190,0.0,3.0,75,0.00,,,0.00,VWS V14.01,2013-08-04 22:39:00,
2013-08-05 00:40:00,80.6,71.9,30.00,South,190,0.0,3.0,75,0.00,,,0.00,VWS V14.01,2013-08-04 22:40:00,
2013-08-05 00:44:00,80.6,71.9,30.00,South,190,0.0,3.0,75,0.00,,,0.00,VWS V14.01,2013-08-04 22:44:00,
2013-08-05 00:49:00,80.6,71.9,29.99,South,190,0.0,0.0,75,0.00,,,0.00,VWS V14.01,2013-08-04 22:49:00,
2013-08-05 00:50:00,80.5,71.8,29.99,South,190,0.0,0.0,75,0.00,,,0.00,VWS V14.01,2013-08-04 22:50:00,
2013-08-05 00:54:00,80.5,71.8,29.99,South,190,0.0,0.0,75,0.00,,,0.00,VWS V14.01,2013-08-04 22:54:00,
2013-08-05 00:59:00,80.3,71.7,29.99,South,190,0.0,0.0,75,0.00,,,0.00,VWS V14.01,2013-08-04 22:59:00,
2013-08-05 01:00:00,80.1,71.9,29.99,South,190,0.0,0.0,76,0.00,,,0.00,VWS V14.01,2013-08-04 23:00:00,
2013-08-05 01:04:00,80.1,71.9,29.99,South,190,0.0,0.0,76,0.00,,,0.00,VWS V14.01,2013-08-04 23:04:00,
2013-08-05 01:09:00,80.1,71.9,29.99,South,190,0.0,0.0,76,0.00,,,0.00,VWS V14.01,2013-08-04 23:09:00,
2013-08-05 01:10:00,80.3,72.8,29.99,South,190,0.0,1.0,78,0.00,,,0.00,VWS V14.01,2013-08-04 23:10:00,
2013-08-05 01:14:00,80.3,72.4,29.99,South,190,0.0,1.0,77,0.00,,,0.00,VWS V14.01,2013-08-04 23:14:00,
2013-08-05 01:19:00,80.4,72.9,29.99,South,190,0.0,0.0,78,0.00,,,0.00,VWS V14.01,2013-08-04 23:19:00,
2013-08-05 01:20:00,80.4,72.9,29.99,South,190,0.0,1.0,78,0.00,,,0.00,VWS V14.01,2013-08-04 23:20:00,
2013-08-05 01:24:00,80.4,72.9,29.99,South,190,0.0,1.0,78,0.00,,,0.00,VWS V14.01,2013-08-04 23:24:00,
2013-08-05 01:29:00,80.1,72.6,29.99,South,190,0.0,0.0,78,0.00,,,0.00,VWS V14.01,2013-08-04 23:29:00,
2013-08-05 01:30:00,80.1,73.4,29.98,South,190,0.0,0.0,80,0.00,,,0.00,VWS V14.01,2013-08-04 23:30:00,
2013-08-05 01:34:00,80.2,73.5,29.98,South,190,0.0,0.0,80,0.00,,,0.00,VWS V14.01,2013-08-04 23:34:00,
2013-08-05 01:39:00,80.2,73.8,29.98,South,190,0.0,0.0,81,0.00,,,0.00,VWS V14.01,2013-08-04 23:39:00,
2013-08-05 01:40:00,80.1,74.1,29.98,South,190,0.0,0.0,82,0.00,,,0.00,VWS V14.01,2013-08-04 23:40:00,
2013-08-05 01:44:00,80.1,74.1,29.98,South,190,0.0,0.0,82,0.00,,,0.00,VWS V14.01,2013-08-04 23:44:00,
2013-08-05 01:49:00,79.9,73.9,29.98,South,190,0.0,0.0,82,0.00,,,0.00,VWS V14.01,2013-08-04 23:49:00,
2013-08-05 01:50:00,79.7,74.1,29.98,South,190,0.0,0.0,83,0.00,,,0.00,VWS V14.01,2013-08-04 23:50:00,
2013-08-05 01:54:00,79.7,74.1,29.98,South,190,0.0,0.0,83,0.00,,,0.00,VWS V14.01,2013-08-04 23:54:00,
2013-08-05 01:59:00,79.6,74.3,29.98,South,190,1.0,2.0,84,0.00,,,0.00,VWS V14.01,2013-08-04 23:59:00,
2013-08-05 02:00:00,79.6,74.7,29.98,South,190,2.0,3.0,85,0.00,,,0.00,VWS V14.01,2013-08-05 00:00:00,
2013-08-05 02:04:00,79.6,74.7,29.99,South,190,2.0,3.0,85,0.00,,,0.00,VWS V14.01,2013-08-05 00:04:00,
2013-08-05 02:09:00,79.5,74.6,29.98,South,190,0.0,2.0,85,0.00,,,0.00,VWS V14.01,2013-08-05 00:09:00,
2013-08-05 02:10:00,79.5,74.9,29.98,South,190,1.0,2.0,86,0.00,,,0.00,VWS V14.01,2013-08-05 00:10:00,
2013-08-05 02:14:00,79.5,74.9,29.98,South,190,1.0,2.0,86,0.00,,,0.00,VWS V14.01,2013-08-05 00:14:00,
2013-08-05 02:19:00,79.1,74.6,29.98,South,190,0.0,2.0,86,0.00,,,0.00,VWS V14.01,2013-08-05 00:19:00,
2013-08-05 02:20:00,79.0,74.5,29.98,South,190,0.0,2.0,86,0.00,,,0.00,VWS V14.01,2013-08-05 00:20:00,
2013-08-05 02:24:00,79.0,74.5,29.98,South,190,0.0,2.0,86,0.00,,,0.00,VWS V14.01,2013-08-05 00:24:00,
2013-08-05 02:29:00,78.9,74.0,29.98,South,190,2.0,3.0,85,0.00,,,0.00,VWS V14.01,2013-08-05 00:29:00,
2013-08-05 02:30:00,78.8,73.9,29.98,South,190,1.0,3.0,85,0.00,,,0.00,VWS V14.01,2013-08-05 00:30:00,
2013-08-05 02:34:00,78.8,73.9,29.98,South,190,1.0,3.0,85,0.00,,,0.00,VWS V14.01,2013-08-05 00:34:00,
2013-08-05 02:39:00,78.9,74.0,29.98,South,190,0.0,3.0,85,0.00,,,0.00,VWS V14.01,2013-08-05 00:39:00,
2013-08-05 02:40:00,79.0,73.8,29.98,South,190,1.0,3.0,84,0.00,,,0.00,VWS V14.01,2013-08-05 00:40:00,
2013-08-05 02:44:00,79.0,73.8,29.98,South,190,1.0,3.0,84,0.00,,,0.00,VWS V14.01,2013-08-05 00:44:00,
2013-08-05 02:49:00,79.0,73.4,29.98,South,190,0.0,2.0,83,0.00,,,0.00,VWS V14.01,2013-08-05 00:49:00,
2013-08-05 02:50:00,79.2,73.2,29.98,South,190,0.0,2.0,82,0.00,,,0.00,VWS V14.01,2013-08-05 00:50:00,
2013-08-05 02:54:00,79.2,73.2,29.98,South,190,0.0,2.0,82,0.00,,,0.00,VWS V14.01,2013-08-05 00:54:00,
2013-08-05 02:59:00,79.2,72.9,29.98,South,190,0.0,0.0,81,0.00,,,0.00,VWS V14.01,2013-08-05 00:59:00,
2013-08-05 03:00:00,79.2,72.5,29.98,South,190,0.0,0.0,80,0.00,,,0.00,VWS V14.01,2013-08-05 01:00:00,
2013-08-05 03:04:00,79.3,72.6,29.98,South,190,0.0,0.0,80,0.00,,,0.00,VWS V14.01,2013-08-05 01:04:00,
2013-08-05 03:09:00,79.3,72.2,29.98,South,190,0.0,0.0,79,0.00,,,0.00,VWS V14.01,2013-08-05 01:09:00,
2013-08-05 03:10:00,79.5,72.4,29.98,South,190,0.0,0.0,79,0.00,,,0.00,VWS V14.01,2013-08-05 01:10:00,
2013-08-05 03:14:00,79.5,72.4,29.98,South,190,0.0,0.0,79,0.00,,,0.00,VWS V14.01,2013-08-05 01:14:00,
2013-08-05 03:19:00,79.5,72.0,29.98,South,190,0.0,0.0,78,0.00,,,0.00,VWS V14.01,2013-08-05 01:19:00,
2013-08-05 03:20:00,79.6,72.1,29.98,South,190,0.0,1.0,78,0.00,,,0.00,VWS V14.01,2013-08-05 01:20:00,
2013-08-05 03:24:00,79.6,72.1,29.98,South,190,0.0,1.0,78,0.00,,,0.00,VWS V14.01,2013-08-05 01:24:00,
2013-08-05 03:29:00,79.5,71.7,29.98,South,190,3.0,3.0,77,0.00,,,0.00,VWS V14.01,2013-08-05 01:29:00,
2013-08-05 03:30:00,79.5,72.0,29.97,South,190,2.0,3.0,78,0.00,,,0.00,VWS V14.01,2013-08-05 01:30:00,
2013-08-05 03:34:00,79.5,72.0,29.97,South,190,2.0,3.0,78,0.00,,,0.00,VWS V14.01,2013-08-05 01:34:00,
2013-08-05 03:39:00,79.2,71.4,29.97,South,190,2.0,3.0,77,0.00,,,0.00,VWS V14.01,2013-08-05 01:39:00,
2013-08-05 03:40:00,78.9,71.5,29.97,South,190,2.0,3.0,78,0.00,,,0.00,VWS V14.01,2013-08-05 01:40:00,
2013-08-05 03:44:00,78.9,71.5,29.97,South,190,2.0,3.0,78,0.00,,,0.00,VWS V14.01,2013-08-05 01:44:00,
2013-08-05 03:49:00,79.0,71.6,29.97,South,190,1.0,2.0,78,0.00,,,0.00,VWS V14.01,2013-08-05 01:49:00,
2013-08-05 03:50:00,78.8,71.4,29.97,SE,140,5.0,5.0,78,0.00,,,0.00,VWS V14.01,2013-08-05 01:50:00,
2013-08-05 03:54:00,78.8,71.4,29.97,SE,140,5.0,5.0,78,0.00,,,0.00,VWS V14.01,2013-08-05 01:54:00,
2013-08-05 03:59:00,79.0,71.9,29.97,SE,126,3.0,5.0,79,0.00,,,0.00,VWS V14.01,2013-08-05 01:59:00,
2013-08-05 04:00:00,79.4,71.9,29.97,SE,126,1.0,5.0,78,0.00,,,0.00,VWS V14.01,2013-08-05 02:00:00,
2013-08-05 04:04:00,79.4,71.9,29.97,SE,126,1.0,5.0,78,0.00,,,0.00,VWS V14.01,2013-08-05 02:04:00,
2013-08-05 04:09:00,79.6,71.8,29.97,SE,126,2.0,2.0,77,0.00,,,0.00,VWS V14.01,2013-08-05 02:09:00,
2013-08-05 04:10:00,79.6,71.4,29.97,SE,126,2.0,3.0,76,0.00,,,0.00,VWS V14.01,2013-08-05 02:10:00,
2013-08-05 04:14:00,79.6,71.4,29.97,SE,126,2.0,3.0,76,0.00,,,0.00,VWS V14.01,2013-08-05 02:14:00,
2013-08-05 04:19:00,79.6,71.0,29.97,SE,126,1.0,3.0,75,0.00,,,0.00,VWS V14.01,2013-08-05 02:19:00,
2013-08-05 04:20:00,79.5,70.9,29.97,SE,126,0.0,3.0,75,0.00,,,0.00,VWS V14.01,2013-08-05 02:20:00,
2013-08-05 04:24:00,79.5,70.9,29.97,SE,126,0.0,3.0,75,0.00,,,0.00,VWS V14.01,2013-08-05 02:24:00,
2013-08-05 04:29:00,79.8,71.2,29.97,SE,126,0.0,0.0,75,0.00,,,0.00,VWS V14.01,2013-08-05 02:29:00,
2013-08-05 04:30:00,80.0,71.0,29.97,SE,126,0.0,0.0,74,0.00,,,0.00,VWS V14.01,2013-08-05 02:30:00,
2013-08-05 04:34:00,80.0,71.0,29.97,SE,126,0.0,0.0,74,0.00,,,0.00,VWS V14.01,2013-08-05 02:34:00,
2013-08-05 04:39:00,80.0,71.0,29.97,SE,126,0.0,0.0,74,0.00,,,0.00,VWS V14.01,2013-08-05 02:39:00,
2013-08-05 04:40:00,79.9,70.9,29.97,SE,126,0.0,0.0,74,0.00,,,0.00,VWS V14.01,2013-08-05 02:40:00,
2013-08-05 04:44:00,79.9,70.9,29.97,SE,126,0.0,0.0,74,0.00,,,0.00,VWS V14.01,2013-08-05 02:44:00,
2013-08-05 04:49:00,79.8,70.4,29.97,SE,126,0.0,0.0,73,0.00,,,0.00,VWS V14.01,2013-08-05 02:49:00,
2013-08-05 04:50:00,79.4,70.0,29.97,SE,126,0.0,0.0,73,0.00,,,0.00,VWS V14.01,2013-08-05 02:50:00,
2013-08-05 04:54:00,79.4,70.0,29.97,SE,126,0.0,0.0,73,0.00,,,0.00,VWS V14.01,2013-08-05 02:54:00,
2013-08-05 04:59:00,79.1,69.7,29.97,SE,126,0.0,0.0,73,0.00,,,0.00,VWS V14.01,2013-08-05 02:59:00,
2013-08-05 05:00:00,79.0,69.6,29.97,SE,126,0.0,0.0,73,0.00,,,0.00,VWS V14.01,2013-08-05 03:00:00,
2013-08-05 05:04:00,79.0,69.6,29.97,SE,126,0.0,0.0,73,0.00,,,0.00,VWS V14.01,2013-08-05 03:04:00,
2013-08-05 05:09:00,78.8,69.8,29.97,SE,126,0.0,0.0,74,0.00,,,0.00,VWS V14.01,2013-08-05 03:09:00,
2013-08-05 05:10:00,78.9,70.3,29.97,SE,126,0.0,0.0,75,0.00,,,0.00,VWS V14.01,2013-08-05 03:10:00,
2013-08-05 05:14:00,78.9,70.3,29.97,SE,126,0.0,0.0,75,0.00,,,0.00,VWS V14.01,2013-08-05 03:14:00,
2013-08-05 05:19:00,78.7,70.1,29.97,SE,126,0.0,0.0,75,0.00,,,0.00,VWS V14.01,2013-08-05 03:19:00,
2013-08-05 05:20:00,78.5,69.9,29.97,SE,126,0.0,0.0,75,0.00,,,0.00,VWS V14.01,2013-08-05 03:20:00,
2013-08-05 05:24:00,78.5,69.9,29.97,SE,126,0.0,0.0,75,0.00,,,0.00,VWS V14.01,2013-08-05 03:24:00,
2013-08-05 05:29:00,78.4,70.2,29.97,SE,126,0.0,0.0,76,0.00,,,0.00,VWS V14.01,2013-08-05 03:29:00,
2013-08-05 05:30:00,78.5,70.7,29.98,SE,126,0.0,0.0,77,0.00,,,0.00,VWS V14.01,2013-08-05 03:30:00,
2013-08-05 05:34:00,78.5,70.7,29.98,SE,126,0.0,0.0,77,0.00,,,0.00,VWS V14.01,2013-08-05 03:34:00,
2013-08-05 05:39:00,78.4,70.2,29.98,SE,126,0.0,0.0,76,0.00,,,0.00,VWS V14.01,2013-08-05 03:39:00,
2013-08-05 05:40:00,78.3,70.5,29.98,SE,126,0.0,0.0,77,0.00,,,0.00,VWS V14.01,2013-08-05 03:40:00,
2013-08-05 05:44:00,78.3,70.1,29.98,SE,126,0.0,0.0,76,0.00,,,0.00,VWS V14.01,2013-08-05 03:44:00,
2013-08-05 05:49:00,78.1,70.3,29.98,SE,126,0.0,0.0,77,0.00,,,0.00,VWS V14.01,2013-08-05 03:49:00,
2013-08-05 05:50:00,78.0,70.2,29.98,SE,126,0.0,0.0,77,0.00,,,0.00,VWS V14.01,2013-08-05 03:50:00,
2013-08-05 05:54:00,78.0,70.2,29.98,SE,126,0.0,0.0,77,0.00,,,0.00,VWS V14.01,2013-08-05 03:54:00,
2013-08-05 05:59:00,77.9,70.1,29.98,SE,126,0.0,0.0,77,0.00,,,0.00,VWS V14.01,2013-08-05 03:59:00,
2013-08-05 06:00:00,77.7,69.9,29.98,SE,126,0.0,0.0,77,0.00,,,0.00,VWS V14.01,2013-08-05 04:00:00,
2013-08-05 06:01:00,77.9,70.1,29.98,SE,126,0.0,0.0,77,0.00,,,0.00,VWS V14.01,2013-08-05 04:01:00,
2013-08-05 06:06:00,77.6,69.8,29.98,SE,126,0.0,0.0,77,0.00,,,0.00,VWS V14.01,2013-08-05 04:06:00,
2013-08-05 06:10:00,78.1,70.3,29.98,SE,126,0.0,0.0,77,0.00,,,0.00,VWS V14.01,2013-08-05 04:10:00,
2013-08-05 06:11:00,77.8,70.4,29.98,SE,126,0.0,0.0,78,0.00,,,0.00,VWS V14.01,2013-08-05 04:11:00,
2013-08-05 06:16:00,78.2,70.4,29.98,SE,126,0.0,0.0,77,0.00,,,0.00,VWS V14.01,2013-08-05 04:16:00,
2013-08-05 06:20:00,78.1,70.3,29.98,SE,126,0.0,0.0,77,0.00,,,0.00,VWS V14.01,2013-08-05 04:20:00,
2013-08-05 06:21:00,78.4,70.6,29.98,SE,126,0.0,0.0,77,0.00,,,0.00,VWS V14.01,2013-08-05 04:21:00,
2013-08-05 06:26:00,77.9,70.1,29.98,SE,126,0.0,0.0,77,0.00,,,0.00,VWS V14.01,2013-08-05 04:26:00,
2013-08-05 06:30:00,77.7,70.3,29.97,SE,126,0.0,0.0,78,0.00,,,0.00,VWS V14.01,2013-08-05 04:30:00,
2013-08-05 06:31:00,77.7,69.9,29.98,SE,126,0.0,0.0,77,0.00,,,0.00,VWS V14.01,2013-08-05 04:31:00,
2013-08-05 06:36:00,77.8,70.4,29.97,SE,126,0.0,0.0,78,0.00,,,0.00,VWS V14.01,2013-08-05 04:36:00,
2013-08-05 06:40:00,78.3,70.9,29.98,SE,126,0.0,0.0,78,0.00,,,0.00,VWS V14.01,2013-08-05 04:40:00,
2013-08-05 06:41:00,78.1,70.7,29.98,SE,126,0.0,0.0,78,0.00,,,0.00,VWS V14.01,2013-08-05 04:41:00,
2013-08-05 06:46:00,78.3,70.5,29.98,SE,126,0.0,0.0,77,0.00,,,0.00,VWS V14.01,2013-08-05 04:46:00,
2013-08-05 06:50:00,78.8,71.0,29.98,SE,126,0.0,0.0,77,0.00,,,0.00,VWS V14.01,2013-08-05 04:50:00,
2013-08-05 06:51:00,78.7,70.9,29.98,SE,126,0.0,0.0,77,0.00,,,0.00,VWS V14.01,2013-08-05 04:51:00,
2013-08-05 06:56:00,78.9,71.1,29.98,SE,126,0.0,0.0,77,0.00,,,0.00,VWS V14.01,2013-08-05 04:56:00,
2013-08-05 07:00:00,79.2,71.4,29.98,SE,126,0.0,0.0,77,0.00,,,0.00,VWS V14.01,2013-08-05 05:00:00,
2013-08-05 07:01:00,79.1,71.3,29.98,SE,126,0.0,0.0,77,0.00,,,0.00,VWS V14.01,2013-08-05 05:01:00,
2013-08-05 07:07:00,79.3,71.5,29.98,SE,126,0.0,0.0,77,0.00,,,0.00,VWS V14.01,2013-08-05 05:07:00,
2013-08-05 07:10:00,79.8,71.6,29.98,SE,126,0.0,0.0,76,0.00,,,0.00,VWS V14.01,2013-08-05 05:10:00,
2013-08-05 07:12:00,79.6,71.4,29.98,SE,126,0.0,0.0,76,0.00,,,0.00,VWS V14.01,2013-08-05 05:12:00,
2013-08-05 07:17:00,80.0,71.8,29.98,SE,126,0.0,0.0,76,0.00,,,0.00,VWS V14.01,2013-08-05 05:17:00,
2013-08-05 07:20:00,80.7,72.4,29.98,SE,126,0.0,0.0,76,0.00,,,0.00,VWS V14.01,2013-08-05 05:20:00,
2013-08-05 07:22:00,80.5,72.2,29.98,SE,126,0.0,0.0,76,0.00,,,0.00,VWS V14.01,2013-08-05 05:22:00,
2013-08-05 07:27:00,80.9,72.2,29.98,SE,126,0.0,0.0,75,0.00,,,0.00,VWS V14.01,2013-08-05 05:27:00,
2013-08-05 07:30:00,81.0,72.3,29.98,SE,126,0.0,0.0,75,0.00,,,0.00,VWS V14.01,2013-08-05 05:30:00,
2013-08-05 07:32:00,81.1,72.4,29.99,SE,126,0.0,0.0,75,0.00,,,0.00,VWS V14.01,2013-08-05 05:32:00,
2013-08-05 07:37:00,80.9,71.8,29.98,SE,126,0.0,0.0,74,0.00,,,0.00,VWS V14.01,2013-08-05 05:37:00,
2013-08-05 07:40:00,80.9,72.2,29.98,SE,126,0.0,0.0,75,0.00,,,0.00,VWS V14.01,2013-08-05 05:40:00,
2013-08-05 07:42:00,80.9,72.2,29.98,SE,126,0.0,0.0,75,0.00,,,0.00,VWS V14.01,2013-08-05 05:42:00,
2013-08-05 07:47:00,80.8,72.1,29.98,SE,126,0.0,0.0,75,0.00,,,0.00,VWS V14.01,2013-08-05 05:47:00,
2013-08-05 07:50:00,81.2,72.5,29.98,SE,126,0.0,0.0,75,0.00,,,0.00,VWS V14.01,2013-08-05 05:50:00,
2013-08-05 07:52:00,81.1,72.4,29.98,SE,126,0.0,0.0,75,0.00,,,0.00,VWS V14.01,2013-08-05 05:52:00,
2013-08-05 07:57:00,81.3,73.0,29.98,SE,126,0.0,0.0,76,0.00,,,0.00,VWS V14.01,2013-08-05 05:57:00,
2013-08-05 08:00:00,81.1,73.2,29.98,SE,126,0.0,0.0,77,0.00,,,0.00,VWS V14.01,2013-08-05 06:00:00,
2013-08-05 08:02:00,81.2,73.3,29.99,SE,126,0.0,0.0,77,0.00,,,0.00,VWS V14.01,2013-08-05 06:02:00,
2013-08-05 08:07:00,81.1,73.6,29.99,SE,126,1.0,3.0,78,0.00,,,0.00,VWS V14.01,2013-08-05 06:07:00,
2013-08-05 08:10:00,80.8,73.7,29.99,SE,126,0.0,3.0,79,0.00,,,0.00,VWS V14.01,2013-08-05 06:10:00,
2013-08-05 08:12:00,80.8,73.7,29.99,SE,126,1.0,3.0,79,0.00,,,0.00,VWS V14.01,2013-08-05 06:12:00,
2013-08-05 08:17:00,80.8,74.1,29.99,SE,126,0.0,2.0,80,0.00,,,0.00,VWS V14.01,2013-08-05 06:17:00,
2013-08-05 08:20:00,81.0,74.2,29.98,SE,128,3.0,3.0,80,0.00,,,0.00,VWS V14.01,2013-08-05 06:20:00,
2013-08-05 08:22:00,81.0,74.2,29.99,SE,126,0.0,3.0,80,0.00,,,0.00,VWS V14.01,2013-08-05 06:22:00,
2013-08-05 08:27:00,80.8,74.4,29.99,SE,128,1.0,3.0,81,0.00,,,0.00,VWS V14.01,2013-08-05 06:27:00,
2013-08-05 08:30:00,80.6,74.6,29.98,SE,131,1.0,4.0,82,0.00,,,0.00,VWS V14.01,2013-08-05 06:30:00,
2013-08-05 08:32:00,80.6,74.6,29.99,SE,131,1.0,4.0,82,0.00,,,0.00,VWS V14.01,2013-08-05 06:32:00,
2013-08-05 08:37:00,80.5,74.5,29.99,SE,131,4.0,4.0,82,0.00,,,0.00,VWS V14.01,2013-08-05 06:37:00,
2013-08-05 08:40:00,80.4,74.4,29.98,SE,142,2.0,5.0,82,0.00,,,0.00,VWS V14.01,2013-08-05 06:40:00,
2013-08-05 08:42:00,80.4,74.8,29.98,SE,142,2.0,5.0,83,0.00,,,0.00,VWS V14.01,2013-08-05 06:42:00,
2013-08-05 08:47:00,80.2,74.2,29.99,SE,142,0.0,2.0,82,0.00,,,0.00,VWS V14.01,2013-08-05 06:47:00,
2013-08-05 08:50:00,80.7,74.3,29.99,SE,142,0.0,2.0,81,0.00,,,0.00,VWS V14.01,2013-08-05 06:50:00,
2013-08-05 08:52:00,80.7,74.7,29.99,SE,142,0.0,2.0,82,0.00,,,0.00,VWS V14.01,2013-08-05 06:52:00,
2013-08-05 08:57:00,81.0,75.0,29.99,SE,146,0.0,3.0,82,0.00,,,0.00,VWS V14.01,2013-08-05 06:57:00,
2013-08-05 09:00:00,81.1,74.7,29.99,SSE,148,0.0,4.0,81,0.00,,,0.00,VWS V14.01,2013-08-05 07:00:00,
2013-08-05 09:02:00,81.1,74.7,29.99,SSE,148,2.0,4.0,81,0.00,,,0.00,VWS V14.01,2013-08-05 07:02:00,
2013-08-05 09:07:00,81.3,74.9,29.99,SSE,148,2.0,2.0,81,0.00,,,0.00,VWS V14.01,2013-08-05 07:07:00,
2013-08-05 09:10:00,81.3,74.9,29.99,SW,214,2.0,5.0,81,0.00,,,0.00,VWS V14.01,2013-08-05 07:10:00,
2013-08-05 09:12:00,81.4,75.0,29.99,South,180,4.0,5.0,81,0.00,,,0.00,VWS V14.01,2013-08-05 07:12:00,
2013-08-05 09:17:00,81.3,74.9,29.99,SW,218,1.0,4.0,81,0.00,,,0.00,VWS V14.01,2013-08-05 07:17:00,
2013-08-05 09:20:00,81.6,75.2,29.98,WSW,240,4.0,5.0,81,0.00,,,0.00,VWS V14.01,2013-08-05 07:20:00,
2013-08-05 09:22:00,81.6,75.2,29.99,SW,232,2.0,5.0,81,0.00,,,0.00,VWS V14.01,2013-08-05 07:22:00,
2013-08-05 09:27:00,81.4,75.0,29.99,WSW,240,3.0,5.0,81,0.00,,,0.00,VWS V14.01,2013-08-05 07:27:00,
2013-08-05 09:30:00,81.4,75.4,29.98,WSW,242,1.0,5.0,82,0.00,,,0.00,VWS V14.01,2013-08-05 07:30:00,
2013-08-05 09:32:00,81.3,75.3,29.99,WSW,241,2.0,5.0,82,0.00,,,0.00,VWS V14.01,2013-08-05 07:32:00,
2013-08-05 09:37:00,81.5,75.5,29.98,WSW,242,5.0,6.0,82,0.00,,,0.00,VWS V14.01,2013-08-05 07:37:00,
2013-08-05 09:40:00,81.6,75.6,29.98,WSW,250,4.0,6.0,82,0.00,,,0.00,VWS V14.01,2013-08-05 07:40:00,
2013-08-05 09:42:00,81.5,75.5,29.99,WSW,251,3.0,6.0,82,0.00,,,0.00,VWS V14.01,2013-08-05 07:42:00,
2013-08-05 09:47:00,81.7,75.7,29.99,WSW,247,6.0,6.0,82,0.00,,,0.00,VWS V14.01,2013-08-05 07:47:00,
2013-08-05 09:50:00,81.4,75.4,29.99,SW,232,6.0,7.0,82,0.00,,,0.00,VWS V14.01,2013-08-05 07:50:00,
2013-08-05 09:52:00,81.5,75.5,29.99,SW,232,4.0,6.0,82,0.00,,,0.00,VWS V14.01,2013-08-05 07:52:00,
2013-08-05 09:58:00,81.4,75.7,29.99,SW,234,5.0,6.0,83,0.00,,,0.00,VWS V14.01,2013-08-05 07:58:00,
2013-08-05 10:00:00,81.8,76.1,29.99,WSW,252,4.0,6.0,83,0.00,,,0.00,VWS V14.01,2013-08-05 08:00:00,
2013-08-05 10:03:00,81.6,75.9,29.99,SW,233,4.0,6.0,83,0.00,,,0.00,VWS V14.01,2013-08-05 08:03:00,
2013-08-05 10:08:00,81.5,75.8,29.99,SW,231,4.0,6.0,83,0.00,,,0.00,VWS V14.01,2013-08-05 08:08:00,
2013-08-05 10:10:00,81.5,75.8,29.99,WSW,240,3.0,7.0,83,0.00,,,0.00,VWS V14.01,2013-08-05 08:10:00,
2013-08-05 10:13:00,81.7,76.0,29.99,WSW,247,5.0,6.0,83,0.00,,,0.00,VWS V14.01,2013-08-05 08:13:00,
2013-08-05 10:18:00,81.1,75.4,29.99,SW,233,5.0,8.0,83,0.00,,,0.00,VWS V14.01,2013-08-05 08:18:00,
2013-08-05 10:20:00,81.1,75.4,29.99,SW,230,4.0,8.0,83,0.00,,,0.00,VWS V14.01,2013-08-05 08:20:00,
2013-08-05 10:22:00,81.0,75.3,29.99,SW,230,4.0,8.0,83,0.00,,,0.00,VWS V14.01,2013-08-05 08:22:00,
2013-08-05 10:27:00,81.6,75.9,29.99,SW,223,8.0,8.0,83,0.00,,,0.00,VWS V14.01,2013-08-05 08:27:00,
2013-08-05 10:30:00,81.5,75.5,29.99,SW,229,5.0,8.0,82,0.00,,,0.00,VWS V14.01,2013-08-05 08:30:00,
2013-08-05 10:32:00,81.5,75.5,29.99,SW,233,5.0,8.0,82,0.00,,,0.00,VWS V14.01,2013-08-05 08:32:00,
2013-08-05 10:38:00,81.9,76.2,29.99,WSW,238,7.0,7.0,83,0.00,,,0.00,VWS V14.01,2013-08-05 08:38:00,
2013-08-05 10:40:00,81.7,75.7,29.99,SW,231,8.0,8.0,82,0.00,,,0.00,VWS V14.01,2013-08-05 08:40:00,
2013-08-05 10:43:00,81.7,75.7,29.99,WSW,238,6.0,8.0,82,0.00,,,0.00,VWS V14.01,2013-08-05 08:43:00,
2013-08-05 10:47:00,81.8,75.8,29.99,SW,226,6.0,8.0,82,0.00,,,0.00,VWS V14.01,2013-08-05 08:47:00,
2013-08-05 10:50:00,81.9,75.5,29.99,WSW,249,2.0,8.0,81,0.00,,,0.00,VWS V14.01,2013-08-05 08:50:00,
2013-08-05 10:53:00,82.0,75.6,29.99,WSW,246,6.0,8.0,81,0.00,,,0.00,VWS V14.01,2013-08-05 08:53:00,
2013-08-05 10:58:00,81.9,75.1,29.99,SW,236,3.0,8.0,80,0.00,,,0.00,VWS V14.01,2013-08-05 08:58:00,
2013-08-05 11:00:00,82.0,75.2,29.99,WSW,252,6.0,9.0,80,0.00,,,0.00,VWS V14.01,2013-08-05 09:00:00,
2013-08-05 11:03:00,82.2,75.8,29.99,WSW,242,7.0,8.0,81,0.00,,,0.00,VWS V14.01,2013-08-05 09:03:00,
2013-08-05 11:08:00,82.2,75.8,29.99,WSW,248,5.0,7.0,81,0.00,,,0.00,VWS V14.01,2013-08-05 09:08:00,
2013-08-05 11:10:00,81.9,75.9,29.99,SW,229,6.0,9.0,82,0.00,,,0.00,VWS V14.01,2013-08-05 09:10:00,
2013-08-05 11:13:00,82.1,75.7,29.99,WSW,241,7.0,9.0,81,0.00,,,0.00,VWS V14.01,2013-08-05 09:13:00,
2013-08-05 11:18:00,81.8,75.8,29.99,WSW,240,4.0,9.0,82,0.00,,,0.00,VWS V14.01,2013-08-05 09:18:00,
2013-08-05 11:20:00,81.9,75.9,29.99,SW,219,6.0,9.0,82,0.00,,,0.00,VWS V14.01,2013-08-05 09:20:00,
2013-08-05 11:23:00,81.9,76.2,29.99,SW,227,7.0,9.0,83,0.00,,,0.00,VWS V14.01,2013-08-05 09:23:00,
2013-08-05 11:28:00,82.2,76.2,29.99,SSW,212,6.0,7.0,82,0.00,,,0.00,VWS V14.01,2013-08-05 09:28:00,
2013-08-05 11:30:00,81.8,75.4,29.99,SW,217,5.0,8.0,81,0.00,,,0.00,VWS V14.01,2013-08-05 09:30:00,
2013-08-05 11:34:00,81.9,75.5,29.99,SW,214,6.0,8.0,81,0.00,,,0.00,VWS V14.01,2013-08-05 09:34:00,
2013-08-05 11:38:00,82.0,76.0,29.99,SW,225,8.0,10.0,82,0.00,,,0.00,VWS V14.01,2013-08-05 09:38:00,
2013-08-05 11:40:00,81.8,75.8,29.99,SW,221,4.0,10.0,82,0.00,,,0.00,VWS V14.01,2013-08-05 09:40:00,
2013-08-05 11:44:00,81.8,75.8,29.99,SW,221,4.0,10.0,82,0.00,,,0.00,VWS V14.01,2013-08-05 09:44:00,
2013-08-05 11:49:00,82.1,76.1,29.99,SW,220,4.0,9.0,82,0.00,,,0.00,VWS V14.01,2013-08-05 09:49:00,
2013-08-05 11:50:00,83.0,76.9,29.98,WNW,299,5.0,9.0,82,0.00,,,0.00,VWS V14.01,2013-08-05 09:50:00,
2013-08-05 11:55:00,83.0,76.9,29.99,WNW,299,5.0,9.0,82,0.00,,,0.00,VWS V14.01,2013-08-05 09:55:00,
2013-08-05 12:00:00,82.9,76.1,29.99,SW,224,6.0,7.0,80,0.00,,,0.00,VWS V14.01,2013-08-05 10:00:00,
2013-08-05 12:04:00,82.6,76.2,29.99,WSW,244,7.0,9.0,81,0.00,,,0.00,VWS V14.01,2013-08-05 10:04:00,
2013-08-05 12:10:00,82.9,76.5,29.99,SSW,207,4.0,9.0,81,0.00,,,0.00,VWS V14.01,2013-08-05 10:10:00,
2013-08-05 12:15:00,83.1,76.7,29.99,SW,217,8.0,8.0,81,0.00,,,0.00,VWS V14.01,2013-08-05 10:15:00,
2013-08-05 12:19:00,83.0,76.6,29.99,South,184,5.0,8.0,81,0.00,,,0.00,VWS V14.01,2013-08-05 10:19:00,
2013-08-05 12:20:00,83.0,76.6,29.99,WSW,254,5.0,8.0,81,0.00,,,0.00,VWS V14.01,2013-08-05 10:20:00,
2013-08-05 12:25:00,83.0,76.9,29.99,WSW,246,5.0,5.0,82,0.00,,,0.00,VWS V14.01,2013-08-05 10:25:00,
2013-08-05 12:30:00,82.9,76.8,29.99,WSW,257,6.0,9.0,82,0.00,,,0.00,VWS V14.01,2013-08-05 10:30:00,
2013-08-05 12:35:00,82.8,76.8,29.99,WSW,251,4.0,8.0,82,0.00,,,0.00,VWS V14.01,2013-08-05 10:35:00,
2013-08-05 12:40:00,83.0,76.9,29.99,West,260,4.0,9.0,82,0.00,,,0.00,VWS V14.01,2013-08-05 10:40:00,
2013-08-05 12:45:00,83.2,77.1,29.99,SW,236,9.0,10.0,82,0.00,,,0.00,VWS V14.01,2013-08-05 10:45:00,
2013-08-05 12:50:00,83.7,77.2,29.98,WSW,248,6.0,10.0,81,0.00,,,0.00,VWS V14.01,2013-08-05 10:50:00,
2013-08-05 12:55:00,83.7,77.2,29.98,West,262,8.0,8.0,81,0.00,,,0.00,VWS V14.01,2013-08-05 10:55:00,
2013-08-05 13:00:00,83.6,77.2,29.98,SW,236,6.0,9.0,81,0.00,,,0.00,VWS V14.01,2013-08-05 11:00:00,
2013-08-05 13:05:00,83.7,76.9,29.98,West,269,9.0,10.0,80,0.00,,,0.00,VWS V14.01,2013-08-05 11:05:00,
2013-08-05 13:10:00,84.0,76.8,29.98,West,259,7.0,10.0,79,0.00,,,0.00,VWS V14.01,2013-08-05 11:10:00,
2013-08-05 13:16:00,84.3,76.7,29.98,WSW,244,7.0,8.0,78,0.00,,,0.00,VWS V14.01,2013-08-05 11:16:00,
2013-08-05 13:20:00,84.5,77.3,29.98,SW,230,8.0,10.0,79,0.00,,,0.00,VWS V14.01,2013-08-05 11:20:00,
2013-08-05 13:21:00,84.2,76.6,29.98,West,267,10.0,10.0,78,0.00,,,0.00,VWS V14.01,2013-08-05 11:21:00,
2013-08-05 13:26:00,84.2,76.6,29.98,SW,226,5.0,9.0,78,0.00,,,0.00,VWS V14.01,2013-08-05 11:26:00,
2013-08-05 13:30:00,84.5,76.9,29.98,WSW,246,6.0,10.0,78,0.00,,,0.00,VWS V14.01,2013-08-05 11:30:00,
2013-08-05 13:31:00,84.4,76.8,29.98,SW,229,8.0,9.0,78,0.00,,,0.00,VWS V14.01,2013-08-05 11:31:00,
2013-08-05 13:37:00,84.6,77.4,29.98,SW,227,6.0,11.0,79,0.00,,,0.00,VWS V14.01,2013-08-05 11:37:00,
2013-08-05 13:40:00,84.8,77.2,29.98,WSW,252,11.0,11.0,78,0.00,,,0.00,VWS V14.01,2013-08-05 11:40:00,
2013-08-05 13:42:00,84.6,77.0,29.98,WSW,246,6.0,11.0,78,0.00,,,0.00,VWS V14.01,2013-08-05 11:42:00,
2013-08-05 13:47:00,84.6,77.0,29.98,WSW,240,8.0,11.0,78,0.00,,,0.00,VWS V14.01,2013-08-05 11:47:00,
2013-08-05 13:50:00,84.5,77.3,29.98,WSW,241,5.0,12.0,79,0.00,,,0.00,VWS V14.01,2013-08-05 11:50:00,
2013-08-05 13:52:00,84.3,77.1,29.98,West,261,8.0,11.0,79,0.00,,,0.00,VWS V14.01,2013-08-05 11:52:00,
2013-08-05 13:57:00,84.4,77.2,29.98,West,267,9.0,11.0,79,0.00,,,0.00,VWS V14.01,2013-08-05 11:57:00,
2013-08-05 14:00:00,84.3,76.7,29.97,WSW,246,9.0,11.0,78,0.00,,,0.00,VWS V14.01,2013-08-05 12:00:00,
2013-08-05 14:02:00,84.4,77.2,29.97,NW,317,3.0,11.0,79,0.00,,,0.00,VWS V14.01,2013-08-05 12:02:00,
2013-08-05 14:07:00,84.9,77.3,29.97,West,263,9.0,9.0,78,0.00,,,0.00,VWS V14.01,2013-08-05 12:07:00,
2013-08-05 14:10:00,85.1,77.1,29.97,SW,236,8.0,9.0,77,0.00,,,0.00,VWS V14.01,2013-08-05 12:10:00,
2013-08-05 14:13:00,85.2,77.2,29.97,WSW,254,5.0,9.0,77,0.00,,,0.00,VWS V14.01,2013-08-05 12:13:00,
2013-08-05 14:17:00,85.3,77.3,29.97,West,263,9.0,9.0,77,0.00,,,0.00,VWS V14.01,2013-08-05 12:17:00,
2013-08-05 14:20:00,85.6,77.2,29.97,SW,231,8.0,10.0,76,0.00,,,0.00,VWS V14.01,2013-08-05 12:20:00,
2013-08-05 14:23:00,85.5,77.1,29.97,WSW,242,6.0,9.0,76,0.00,,,0.00,VWS V14.01,2013-08-05 12:23:00,
2013-08-05 14:28:00,84.9,76.5,29.97,WSW,250,5.0,9.0,76,0.00,,,0.00,VWS V14.01,2013-08-05 12:28:00,
2013-08-05 14:30:00,84.9,76.9,29.97,SW,224,7.0,9.0,77,0.00,,,0.00,VWS V14.01,2013-08-05 12:30:00,
2013-08-05 14:33:00,85.3,77.3,29.97,SW,230,6.0,9.0,77,0.00,,,0.00,VWS V14.01,2013-08-05 12:33:00,
2013-08-05 14:38:00,85.1,77.1,29.97,WSW,246,5.0,7.0,77,0.00,,,0.00,VWS V14.01,2013-08-05 12:38:00,
2013-08-05 14:40:00,85.6,77.6,29.97,WSW,240,6.0,7.0,77,0.00,,,0.00,VWS V14.01,2013-08-05 12:40:00,
2013-08-05 14:43:00,85.4,77.4,29.97,WSW,248,3.0,7.0,77,0.00,,,0.00,VWS V14.01,2013-08-05 12:43:00,
2013-08-05 14:48:00,85.3,76.5,29.97,SW,232,5.0,7.0,75,0.00,,,0.00,VWS V14.01,2013-08-05 12:48:00,
2013-08-05 14:50:00,85.0,77.0,29.97,SSW,210,4.0,8.0,77,0.00,,,0.00,VWS V14.01,2013-08-05 12:50:00,
2013-08-05 14:53:00,84.6,76.6,29.97,West,269,4.0,8.0,77,0.00,,,0.00,VWS V14.01,2013-08-05 12:53:00,
2013-08-05 14:58:00,85.2,76.8,29.97,SSW,206,5.0,8.0,76,0.00,,,0.00,VWS V14.01,2013-08-05 12:58:00,
2013-08-05 15:00:00,85.7,76.9,29.97,WSW,243,6.0,9.0,75,0.00,,,0.00,VWS V14.01,2013-08-05 13:00:00,
2013-08-05 15:03:00,85.6,77.2,29.97,SSW,204,4.0,8.0,76,0.00,,,0.00,VWS V14.01,2013-08-05 13:03:00,
2013-08-05 15:08:00,85.8,77.0,29.97,WSW,238,5.0,8.0,75,0.00,,,0.00,VWS V14.01,2013-08-05 13:08:00,
2013-08-05 15:10:00,85.6,77.2,29.97,SW,231,5.0,9.0,76,0.00,,,0.00,VWS V14.01,2013-08-05 13:10:00,
2013-08-05 15:13:00,85.4,76.6,29.97,WSW,254,4.0,9.0,75,0.00,,,0.00,VWS V14.01,2013-08-05 13:13:00,
2013-08-05 15:19:00,85.2,76.4,29.97,WSW,241,6.0,8.0,75,0.00,,,0.00,VWS V14.01,2013-08-05 13:19:00,
2013-08-05 15:20:00,84.7,76.3,29.97,SW,226,7.0,10.0,76,0.00,,,0.00,VWS V14.01,2013-08-05 13:20:00,
2013-08-05 15:24:00,84.7,76.7,29.97,WSW,256,7.0,10.0,77,0.00,,,0.00,VWS V14.01,2013-08-05 13:24:00,
2013-08-05 15:29:00,84.5,76.5,29.96,SW,223,5.0,11.0,77,0.00,,,0.00,VWS V14.01,2013-08-05 13:29:00,
2013-08-05 15:30:00,85.2,77.2,29.96,WSW,249,4.0,11.0,77,0.00,,,0.00,VWS V14.01,2013-08-05 13:30:00,
2013-08-05 15:34:00,85.1,77.1,29.96,West,261,3.0,11.0,77,0.00,,,0.00,VWS V14.01,2013-08-05 13:34:00,
2013-08-05 15:39:00,85.4,77.0,29.96,WSW,237,8.0,8.0,76,0.00,,,0.00,VWS V14.01,2013-08-05 13:39:00,
2013-08-05 15:40:00,85.5,77.1,29.96,SW,225,7.0,8.0,76,0.00,,,0.00,VWS V14.01,2013-08-05 13:40:00,
2013-08-05 15:44:00,85.5,77.1,29.96,SW,225,7.0,8.0,76,0.00,,,0.00,VWS V14.01,2013-08-05 13:44:00,
2013-08-05 15:49:00,85.2,77.2,29.96,SW,234,6.0,9.0,77,0.00,,,0.00,VWS V14.01,2013-08-05 13:49:00,
2013-08-05 15:50:00,84.8,76.0,29.95,WSW,250,7.0,10.0,75,0.00,,,0.00,VWS V14.01,2013-08-05 13:50:00,
2013-08-05 15:54:00,84.8,76.0,29.95,WSW,250,7.0,10.0,75,0.00,,,0.00,VWS V14.01,2013-08-05 13:54:00,
2013-08-05 15:59:00,85.4,76.2,29.95,WSW,240,7.0,9.0,74,0.00,,,0.00,VWS V14.01,2013-08-05 13:59:00,
2013-08-05 16:00:00,85.0,75.8,29.95,West,263,6.0,11.0,74,0.00,,,0.00,VWS V14.01,2013-08-05 14:00:00,
2013-08-05 16:05:00,85.0,75.8,29.95,West,265,9.0,9.0,74,0.00,,,0.00,VWS V14.01,2013-08-05 14:05:00,
2013-08-05 16:10:00,85.4,76.6,29.95,WSW,249,6.0,9.0,75,0.00,,,0.00,VWS V14.01,2013-08-05 14:10:00,
2013-08-05 16:15:00,84.9,75.7,29.95,WSW,257,7.0,11.0,74,0.00,,,0.00,VWS V14.01,2013-08-05 14:15:00,
2013-08-05 16:20:00,84.7,74.7,29.95,West,262,8.0,11.0,72,0.00,,,0.00,VWS V14.01,2013-08-05 14:20:00,
2013-08-05 16:25:00,84.9,74.0,29.95,WSW,252,2.0,9.0,70,0.00,,,0.00,VWS V14.01,2013-08-05 14:25:00,
2013-08-05 16:30:00,84.9,74.0,29.95,West,267,6.0,11.0,70,0.00,,,0.00,VWS V14.01,2013-08-05 14:30:00,
2013-08-05 16:32:00,85.0,74.1,29.95,West,263,8.0,11.0,70,0.00,,,0.00,VWS V14.01,2013-08-05 14:32:00,
2013-08-05 16:37:00,84.8,73.9,29.95,WSW,248,4.0,9.0,70,0.00,,,0.00,VWS V14.01,2013-08-05 14:37:00,
2013-08-05 16:40:00,85.0,73.3,29.95,WSW,257,8.0,10.0,68,0.00,,,0.00,VWS V14.01,2013-08-05 14:40:00,
2013-08-05 16:42:00,84.9,73.6,29.95,West,261,8.0,10.0,69,0.00,,,0.00,VWS V14.01,2013-08-05 14:42:00,
2013-08-05 16:47:00,85.0,73.3,29.95,WSW,251,5.0,11.0,68,0.00,,,0.00,VWS V14.01,2013-08-05 14:47:00,
2013-08-05 16:50:00,85.0,72.8,29.95,SW,233,8.0,11.0,67,0.00,,,0.00,VWS V14.01,2013-08-05 14:50:00,
2013-08-05 16:52:00,85.2,72.6,29.95,West,267,11.0,11.0,66,0.00,,,0.00,VWS V14.01,2013-08-05 14:52:00,
2013-08-05 16:57:00,85.2,73.0,29.94,WSW,242,5.0,9.0,67,0.00,,,0.00,VWS V14.01,2013-08-05 14:57:00,
2013-08-05 17:00:00,85.5,72.4,29.94,WSW,254,7.0,10.0,65,0.00,,,0.00,VWS V14.01,2013-08-05 15:00:00,
2013-08-05 17:02:00,85.6,72.9,29.94,SW,227,7.0,9.0,66,0.00,,,0.00,VWS V14.01,2013-08-05 15:02:00,
2013-08-05 17:07:00,85.4,72.3,29.94,West,262,8.0,10.0,65,0.00,,,0.00,VWS V14.01,2013-08-05 15:07:00,
2013-08-05 17:10:00,85.9,72.3,29.94,West,274,2.0,10.0,64,0.00,,,0.00,VWS V14.01,2013-08-05 15:10:00,
2013-08-05 17:12:00,85.6,72.5,29.94,WSW,238,2.0,10.0,65,0.00,,,0.00,VWS V14.01,2013-08-05 15:12:00,
2013-08-05 17:17:00,85.9,71.4,29.94,West,263,3.0,10.0,62,0.00,,,0.00,VWS V14.01,2013-08-05 15:17:00,
2013-08-05 17:20:00,85.8,71.3,29.94,WSW,256,8.0,10.0,62,0.00,,,0.00,VWS V14.01,2013-08-05 15:20:00,
2013-08-05 17:22:00,85.9,71.4,29.94,West,262,6.0,10.0,62,0.00,,,0.00,VWS V14.01,2013-08-05 15:22:00,
2013-08-05 17:28:00,85.9,71.4,29.94,West,259,5.0,8.0,62,0.00,,,0.00,VWS V14.01,2013-08-05 15:28:00,
2013-08-05 17:30:00,85.7,70.7,29.94,West,271,4.0,9.0,61,0.00,,,0.00,VWS V14.01,2013-08-05 15:30:00,
2013-08-05 17:32:00,85.8,70.8,29.94,WSW,253,7.0,9.0,61,0.00,,,0.00,VWS V14.01,2013-08-05 15:32:00,
2013-08-05 17:38:00,85.7,71.2,29.94,WNW,294,5.0,9.0,62,0.00,,,0.00,VWS V14.01,2013-08-05 15:38:00,
2013-08-05 17:40:00,86.4,71.4,29.94,WNW,297,3.0,9.0,61,0.00,,,0.00,VWS V14.01,2013-08-05 15:40:00,
2013-08-05 17:43:00,86.2,71.7,29.94,WNW,289,5.0,9.0,62,0.00,,,0.00,VWS V14.01,2013-08-05 15:43:00,
2013-08-05 17:48:00,86.0,70.5,29.94,WNW,291,7.0,10.0,60,0.00,,,0.00,VWS V14.01,2013-08-05 15:48:00,
2013-08-05 17:50:00,85.8,70.8,29.94,NW,325,4.0,10.0,61,0.00,,,0.00,VWS V14.01,2013-08-05 15:50:00,
2013-08-05 17:53:00,85.5,70.5,29.94,NW,323,5.0,10.0,61,0.00,,,0.00,VWS V14.01,2013-08-05 15:53:00,
2013-08-05 17:58:00,86.5,71.0,29.94,WNW,283,5.0,6.0,60,0.00,,,0.00,VWS V14.01,2013-08-05 15:58:00,
2013-08-05 18:00:00,85.3,69.4,29.94,WNW,288,8.0,11.0,59,0.00,,,0.00,VWS V14.01,2013-08-05 16:00:00,
2013-08-05 18:03:00,85.8,69.8,29.94,WNW,286,10.0,11.0,59,0.00,,,0.00,VWS V14.01,2013-08-05 16:03:00,
2013-08-05 18:08:00,85.2,70.2,29.94,West,279,4.0,11.0,61,0.00,,,0.00,VWS V14.01,2013-08-05 16:08:00,
2013-08-05 18:10:00,85.7,70.7,29.94,WNW,290,2.0,11.0,61,0.00,,,0.00,VWS V14.01,2013-08-05 16:10:00,
2013-08-05 18:13:00,85.5,70.5,29.94,West,279,5.0,11.0,61,0.00,,,0.00,VWS V14.01,2013-08-05 16:13:00,
2013-08-05 18:18:00,85.0,70.1,29.94,WNW,284,10.0,11.0,61,0.00,,,0.00,VWS V14.01,2013-08-05 16:18:00,
2013-08-05 18:20:00,84.4,70.4,29.94,WNW,287,4.0,13.0,63,0.00,,,0.00,VWS V14.01,2013-08-05 16:20:00,
2013-08-05 18:23:00,84.3,70.3,29.94,WNW,288,5.0,13.0,63,0.00,,,0.00,VWS V14.01,2013-08-05 16:23:00,
2013-08-05 18:28:00,84.4,70.4,29.94,WNW,288,8.0,11.0,63,0.00,,,0.00,VWS V14.01,2013-08-05 16:28:00,
2013-08-05 18:30:00,84.2,71.2,29.94,WNW,294,6.0,11.0,65,0.00,,,0.00,VWS V14.01,2013-08-05 16:30:00,
2013-08-05 18:33:00,84.1,70.6,29.94,WNW,292,1.0,11.0,64,0.00,,,0.00,VWS V14.01,2013-08-05 16:33:00,
2013-08-05 18:38:00,84.0,70.5,29.94,WNW,294,5.0,11.0,64,0.00,,,0.00,VWS V14.01,2013-08-05 16:38:00,
2013-08-05 18:40:00,84.3,70.3,29.94,West,279,4.0,11.0,63,0.00,,,0.00,VWS V14.01,2013-08-05 16:40:00,
2013-08-05 18:43:00,84.3,70.3,29.94,WNW,283,5.0,11.0,63,0.00,,,0.00,VWS V14.01,2013-08-05 16:43:00,
2013-08-05 18:48:00,84.0,70.1,29.94,WNW,283,11.0,11.0,63,0.00,,,0.00,VWS V14.01,2013-08-05 16:48:00,
2013-08-05 18:50:00,83.8,70.3,29.94,West,278,7.0,11.0,64,0.00,,,0.00,VWS V14.01,2013-08-05 16:50:00,
2013-08-05 18:53:00,83.7,70.2,29.94,West,279,5.0,11.0,64,0.00,,,0.00,VWS V14.01,2013-08-05 16:53:00,
2013-08-05 18:58:00,83.9,70.4,29.94,WNW,292,8.0,8.0,64,0.00,,,0.00,VWS V14.01,2013-08-05 16:58:00,
2013-08-05 19:00:00,84.0,70.5,29.95,WNW,293,4.0,8.0,64,0.00,,,0.00,VWS V14.01,2013-08-05 17:00:00,
2013-08-05 19:03:00,83.9,70.4,29.94,WNW,293,1.0,8.0,64,0.00,,,0.00,VWS V14.01,2013-08-05 17:03:00,
2013-08-05 19:08:00,83.9,70.4,29.95,WNW,296,4.0,7.0,64,0.00,,,0.00,VWS V14.01,2013-08-05 17:08:00,
2013-08-05 19:10:00,83.7,70.7,29.95,NNW,338,4.0,7.0,65,0.00,,,0.00,VWS V14.01,2013-08-05 17:10:00,
2013-08-05 19:14:00,83.7,70.7,29.95,NNW,337,3.0,7.0,65,0.00,,,0.00,VWS V14.01,2013-08-05 17:14:00,
2013-08-05 19:19:00,83.7,70.2,29.95,North,355,4.0,5.0,64,0.00,,,0.00,VWS V14.01,2013-08-05 17:19:00,
2013-08-05 19:20:00,83.5,70.5,29.95,North,5,3.0,6.0,65,0.00,,,0.00,VWS V14.01,2013-08-05 17:20:00,
2013-08-05 19:24:00,83.5,70.5,29.95,North,5,4.0,6.0,65,0.00,,,0.00,VWS V14.01,2013-08-05 17:24:00,
2013-08-05 19:29:00,83.3,70.3,29.95,North,5,2.0,4.0,65,0.00,,,0.00,VWS V14.01,2013-08-05 17:29:00,
2013-08-05 19:30:00,83.2,70.2,29.95,North,5,4.0,4.0,65,0.00,,,0.00,VWS V14.01,2013-08-05 17:30:00,
2013-08-05 19:34:00,83.2,70.2,29.95,North,5,1.0,4.0,65,0.00,,,0.00,VWS V14.01,2013-08-05 17:34:00,
2013-08-05 19:39:00,82.9,70.4,29.95,North,5,2.0,4.0,66,0.00,,,0.00,VWS V14.01,2013-08-05 17:39:00,
2013-08-05 19:40:00,82.7,70.6,29.95,North,5,2.0,4.0,67,0.00,,,0.00,VWS V14.01,2013-08-05 17:40:00,
2013-08-05 19:44:00,82.7,70.6,29.95,North,5,2.0,4.0,67,0.00,,,0.00,VWS V14.01,2013-08-05 17:44:00,
2013-08-05 19:49:00,82.6,70.5,29.95,North,5,2.0,4.0,67,0.00,,,0.00,VWS V14.01,2013-08-05 17:49:00,
2013-08-05 19:50:00,82.3,70.7,29.95,North,5,0.0,4.0,68,0.00,,,0.00,VWS V14.01,2013-08-05 17:50:00,
2013-08-05 19:54:00,82.3,70.7,29.95,North,5,0.0,4.0,68,0.00,,,0.00,VWS V14.01,2013-08-05 17:54:00,
2013-08-05 19:59:00,82.1,70.9,29.95,North,5,2.0,4.0,69,0.00,,,0.00,VWS V14.01,2013-08-05 17:59:00,
2013-08-05 20:00:00,81.9,70.7,29.96,NNE,23,3.0,4.0,69,0.00,,,0.00,VWS V14.01,2013-08-05 18:00:00,
2013-08-05 20:04:00,81.9,70.7,29.96,NNE,21,4.0,4.0,69,0.00,,,0.00,VWS V14.01,2013-08-05 18:04:00,
2013-08-05 20:09:00,81.4,70.7,29.95,NNE,24,2.0,5.0,70,0.00,,,0.00,VWS V14.01,2013-08-05 18:09:00,
2013-08-05 20:10:00,81.1,70.0,29.96,NNE,24,3.0,5.0,69,0.00,,,0.00,VWS V14.01,2013-08-05 18:10:00,
2013-08-05 20:14:00,81.1,70.0,29.96,NNE,24,4.0,5.0,69,0.00,,,0.00,VWS V14.01,2013-08-05 18:14:00,
2013-08-05 20:19:00,81.0,69.9,29.96,NNE,24,1.0,4.0,69,0.00,,,0.00,VWS V14.01,2013-08-05 18:19:00,
2013-08-05 20:20:00,80.9,69.4,29.97,NNE,24,2.0,4.0,68,0.00,,,0.00,VWS V14.01,2013-08-05 18:20:00,
2013-08-05 20:25:00,80.9,69.4,29.97,NNE,24,2.0,4.0,68,0.00,,,0.00,VWS V14.01,2013-08-05 18:25:00,
2013-08-05 20:30:00,80.8,68.8,29.97,NNE,24,1.0,4.0,67,0.00,,,0.00,VWS V14.01,2013-08-05 18:30:00,
2013-08-05 20:35:00,80.7,68.7,29.97,NNE,24,3.0,3.0,67,0.00,,,0.00,VWS V14.01,2013-08-05 18:35:00,
2013-08-05 20:40:00,80.8,68.8,29.97,NNE,24,0.0,3.0,67,0.00,,,0.00,VWS V14.01,2013-08-05 18:40:00,
2013-08-05 20:45:00,80.8,68.4,29.97,NNE,24,1.0,1.0,66,0.00,,,0.00,VWS V14.01,2013-08-05 18:45:00,
2013-08-05 20:50:00,80.8,67.9,29.97,NNE,24,0.0,1.0,65,0.00,,,0.00,VWS V14.01,2013-08-05 18:50:00,
2013-08-05 20:55:00,80.6,66.8,29.97,NNE,24,0.0,0.0,63,0.00,,,0.00,VWS V14.01,2013-08-05 18:55:00,
2013-08-05 21:00:00,79.9,65.7,29.97,NNE,24,2.0,4.0,62,0.00,,,0.00,VWS V14.01,2013-08-05 19:00:00,
2013-08-05 21:05:00,79.7,65.5,29.97,NNE,24,0.0,0.0,62,0.00,,,0.00,VWS V14.01,2013-08-05 19:05:00,
2013-08-05 21:10:00,79.6,65.4,29.97,NNE,24,2.0,3.0,62,0.00,,,0.00,VWS V14.01,2013-08-05 19:10:00,
2013-08-05 21:15:00,79.3,66.1,29.97,NNE,23,4.0,5.0,64,0.00,,,0.00,VWS V14.01,2013-08-05 19:15:00,
2013-08-05 21:20:00,79.2,64.1,29.98,NNE,23,2.0,5.0,60,0.00,,,0.00,VWS V14.01,2013-08-05 19:20:00,
2013-08-05 21:21:00,79.2,64.1,29.97,NNE,23,2.0,5.0,60,0.00,,,0.00,VWS V14.01,2013-08-05 19:21:00,
2013-08-05 21:26:00,79.2,64.6,29.97,NNE,23,3.0,4.0,61,0.00,,,0.00,VWS V14.01,2013-08-05 19:26:00,
2013-08-05 21:30:00,79.4,66.6,29.98,NNE,22,3.0,5.0,65,0.00,,,0.00,VWS V14.01,2013-08-05 19:30:00,
2013-08-05 21:31:00,79.5,66.3,29.98,NNE,22,3.0,4.0,64,0.00,,,0.00,VWS V14.01,2013-08-05 19:31:00,
2013-08-05 21:36:00,79.3,65.6,29.98,NNE,22,2.0,4.0,63,0.00,,,0.00,VWS V14.01,2013-08-05 19:36:00,
2013-08-05 21:40:00,78.8,62.3,29.98,NNE,22,2.0,4.0,57,0.00,,,0.00,VWS V14.01,2013-08-05 19:40:00,
2013-08-05 21:41:00,79.2,63.7,29.98,NNE,22,2.0,4.0,59,0.00,,,0.00,VWS V14.01,2013-08-05 19:41:00,
2013-08-05 21:46:00,78.9,62.4,29.98,NNE,22,1.0,2.0,57,0.00,,,0.00,VWS V14.01,2013-08-05 19:46:00,
2013-08-05 21:50:00,80.7,59.2,29.98,NNE,22,0.0,2.0,48,0.00,,,0.00,VWS V14.01,2013-08-05 19:50:00,
2013-08-05 21:51:00,79.3,60.2,29.98,NNE,22,0.0,2.0,52,0.00,,,0.00,VWS V14.01,2013-08-05 19:51:00,
2013-08-05 21:56:00,81.2,59.1,29.98,NNE,22,0.0,0.0,47,0.00,,,0.00,VWS V14.01,2013-08-05 19:56:00,
2013-08-05 22:00:00,81.7,60.1,29.98,NNE,22,0.0,0.0,48,0.00,,,0.00,VWS V14.01,2013-08-05 20:00:00,
2013-08-05 22:03:00,81.4,58.7,29.98,NNE,22,0.0,0.0,46,0.00,,,0.00,VWS V14.01,2013-08-05 20:03:00,
2013-08-05 22:08:00,81.7,60.1,29.98,NNE,22,0.0,0.0,48,0.00,,,0.00,VWS V14.01,2013-08-05 20:08:00,
2013-08-05 22:10:00,81.5,59.9,29.98,NNE,22,0.0,0.0,48,0.00,,,0.00,VWS V14.01,2013-08-05 20:10:00,
2013-08-05 22:13:00,81.5,59.9,29.98,NNE,22,0.0,0.0,48,0.00,,,0.00,VWS V14.01,2013-08-05 20:13:00,
2013-08-05 22:18:00,81.4,59.8,29.98,NNE,22,0.0,0.0,48,0.00,,,0.00,VWS V14.01,2013-08-05 20:18:00,
2013-08-05 22:20:00,81.6,60.6,29.98,NNE,22,0.0,0.0,49,0.00,,,0.00,VWS V14.01,2013-08-05 20:20:00,
2013-08-05 22:23:00,81.6,60.6,29.98,NNE,22,0.0,0.0,49,0.00,,,0.00,VWS V14.01,2013-08-05 20:23:00,
2013-08-05 22:29:00,81.5,59.9,29.98,NNE,22,0.0,0.0,48,0.00,,,0.00,VWS V14.01,2013-08-05 20:29:00,
2013-08-05 22:30:00,81.5,58.1,29.98,NNE,22,1.0,2.0,45,0.00,,,0.00,VWS V14.01,2013-08-05 20:30:00,
2013-08-05 22:34:00,81.5,58.1,29.98,NNE,22,1.0,2.0,45,0.00,,,0.00,VWS V14.01,2013-08-05 20:34:00,
2013-08-05 22:39:00,81.7,58.3,29.98,NNE,22,1.0,2.0,45,0.00,,,0.00,VWS V14.01,2013-08-05 20:39:00,
2013-08-05 22:40:00,81.9,58.5,29.98,NNE,22,0.0,2.0,45,0.00,,,0.00,VWS V14.01,2013-08-05 20:40:00,
2013-08-05 22:44:00,81.9,58.5,29.98,NNE,22,0.0,2.0,45,0.00,,,0.00,VWS V14.01,2013-08-05 20:44:00,
2013-08-05 22:49:00,81.8,59.6,29.98,NNE,22,0.0,0.0,47,0.00,,,0.00,VWS V14.01,2013-08-05 20:49:00,
2013-08-05 22:50:00,81.7,59.5,29.98,NNE,22,0.0,0.0,47,0.00,,,0.00,VWS V14.01,2013-08-05 20:50:00,
2013-08-05 22:54:00,81.7,59.5,29.98,NNE,22,0.0,0.0,47,0.00,,,0.00,VWS V14.01,2013-08-05 20:54:00,
2013-08-05 22:59:00,81.7,60.1,29.98,NNE,22,0.0,0.0,48,0.00,,,0.00,VWS V14.01,2013-08-05 20:59:00,
2013-08-05 23:00:00,81.4,57.4,29.98,NNE,22,1.0,1.0,44,0.00,,,0.00,VWS V14.01,2013-08-05 21:00:00,
2013-08-05 23:04:00,81.4,57.4,29.98,NNE,22,0.0,1.0,44,0.00,,,0.00,VWS V14.01,2013-08-05 21:04:00,
2013-08-05 23:09:00,81.3,58.0,29.98,NNE,22,0.0,0.0,45,0.00,,,0.00,VWS V14.01,2013-08-05 21:09:00,
2013-08-05 23:10:00,81.3,60.3,29.98,NNE,22,0.0,0.0,49,0.00,,,0.00,VWS V14.01,2013-08-05 21:10:00,
2013-08-05 23:14:00,81.3,60.3,29.98,NNE,22,0.0,0.0,49,0.00,,,0.00,VWS V14.01,2013-08-05 21:14:00,
2013-08-05 23:19:00,81.1,59.6,29.98,NNE,22,0.0,1.0,48,0.00,,,0.00,VWS V14.01,2013-08-05 21:19:00,
2013-08-05 23:20:00,80.9,58.2,29.98,NNE,22,0.0,1.0,46,0.00,,,0.00,VWS V14.01,2013-08-05 21:20:00,
2013-08-05 23:25:00,80.9,58.2,29.98,NNE,22,0.0,1.0,46,0.00,,,0.00,VWS V14.01,2013-08-05 21:25:00,
2013-08-05 23:30:00,80.9,57.0,29.98,NNE,22,0.0,0.0,44,0.00,,,0.00,VWS V14.01,2013-08-05 21:30:00,
2013-08-05 23:35:00,81.6,55.6,29.98,NNE,22,2.0,2.0,41,0.00,,,0.00,VWS V14.01,2013-08-05 21:35:00,
2013-08-05 23:40:00,82.1,57.4,29.98,NNE,22,0.0,2.0,43,0.00,,,0.00,VWS V14.01,2013-08-05 21:40:00,
2013-08-05 23:45:00,81.9,60.9,29.98,NNE,22,0.0,1.0,49,0.00,,,0.00,VWS V14.01,2013-08-05 21:45:00,
2013-08-05 23:50:00,82.0,62.7,29.98,NNE,22,1.0,1.0,52,0.00,,,0.00,VWS V14.01,2013-08-05 21:50:00,
2013-08-05 23:56:00,82.0,64.3,29.98,NNE,22,0.0,2.0,55,0.00,,,0.00,VWS V14.01,2013-08-05 21:56:00,